This is the latest recevied weather packets stored in our database for station/object W5CMS-13. If no packets are shown the sender has not sent any weather packets the latest 10 day(s).
| Time | Temp. | Humidity | Pressure | Rain* | Wind** | Luminosity | Snow |
|---|---|---|---|---|---|---|---|
| 1777134018 | 27.22° C | 80% | 1007.2 hPa | 0 mm | - | - | - |
| 1777133417 | 27.22° C | 80% | 1007.1 hPa | 0 mm | - | - | - |
| 1777132818 | 26.67° C | 82% | 1007 hPa | 0 mm | - | - | - |
| 1777132218 | 26.11° C | 83% | 1007 hPa | 0 mm | - | - | - |
| 1777131617 | 26.11° C | 85% | 1006.9 hPa | 0 mm | - | - | - |
| 1777131017 | 25.56° C | 86% | 1006.8 hPa | 0 mm | - | - | - |
| 1777130418 | 25° C | 87% | 1006.8 hPa | 0 mm | - | - | - |
| 1777129819 | 25° C | 87% | 1006.8 hPa | 0 mm | - | - | - |
| 1777129218 | 24.44° C | 88% | 1006.6 hPa | 0 mm | - | - | - |
| 1777128619 | 23.89° C | 90% | 1006.7 hPa | 0 mm | - | - | - |
| 1777128017 | 23.89° C | 91% | 1006.9 hPa | 0 mm | - | - | - |
| 1777126817 | 23.33° C | 92% | 1007 hPa | 0 mm | - | - | - |
| 1777126218 | 23.33° C | 93% | 1006.9 hPa | 0 mm | - | - | - |
| 1777125618 | 22.78° C | 94% | 1006.7 hPa | 0 mm | - | - | - |
| 1777125018 | 21.67° C | 94% | 1006.8 hPa | 0 mm | - | - | - |
| 1777124418 | 21.11° C | 93% | 1006.8 hPa | 0 mm | - | - | - |
| 1777123819 | 20.56° C | 93% | 1006.9 hPa | 0 mm | - | - | - |
| 1777123218 | 20.56° C | 93% | 1007 hPa | 0 mm | - | - | - |
| 1777122617 | 20° C | 93% | 1007.1 hPa | 0 mm | - | - | - |
| 1777122018 | 19.44° C | 93% | 1006.9 hPa | 0 mm | - | - | - |
| 1777121417 | 19.44° C | 93% | 1006.9 hPa | 0 mm | - | - | - |
| 1777120817 | 18.89° C | 94% | 1006.7 hPa | 0 mm | - | - | - |
| 1777120217 | 18.33° C | 94% | 1006.7 hPa | 0 mm | - | - | - |
| 1777119617 | 18.33° C | 94% | 1006.6 hPa | 0 mm | - | - | - |
| 1777119019 | 18.33° C | 94% | 1006.4 hPa | 0 mm | - | - | - |
* Rain latest hour (hover to see other rain measurements)
** Current wind speed in m/s (hover to see current wind gust speed)